Regional Weather Roundup
Issued by NWS

Home | Current Version | Previous Version | Text Only | Print | Product List | Glossary Off
Versions: 1 2 3 4 5 6 7 8 9 10 11 12 13 14 15 16 17 18 19 20 21 22 23 24 25 26 27 28 29 30 31 32 33 34 35 36 37 38 39 40 41 42 43 44 45 46 47 48 49 50

000
ASUS43 KDTX 301010
RWRMI
MICHIGAN HOURLY REGIONAL WEATHER ROUNDUP
NATIONAL WEATHER SERVICE DETROIT/PONTIAC MI
600 AM EDT THU JUL 30 2015

NOTE: "FAIR" INDICATES FEW OR NO CLOUDS BELOW 12,000 FEET WITH NO
SIGNIFICANT WEATHER AND/OR OBSTRUCTION TO VISIBILITY.

MIZ047>049-052>055-059>063-066>070-074>076-081>083-301100-
SOUTHEAST LOWER MICHIGAN

CITY           SKY/WX    TMP DP  RH WIND       PRES   REMARKS
ADRIAN         CLEAR     62  57  83 W5        29.97R
ALMA           CLEAR     63  58  83 SW7       29.92S
ANN ARBOR      CLEAR     63  57  81 W7        29.95R
BAD AXE        CLEAR     62  58  84 SW5       29.89R
CARO           CLEAR     60  57  90 SW3       29.90R
DETROIT CITY   CLEAR     67  57  70 W7        29.93R
DETROIT        MOCLDY    65  57  75 W5        29.95R
FLINT          CLEAR     65  57  75 SW7       29.92S
GROSSE ILE     CLEAR     66  59  77 W6        29.93R
HILLSDALE      CLEAR     64  59  85 W7        29.99R
HOWELL         CLEAR     61  57  86 W6        29.95R

CITY           SKY/WX    TMP DP  RH WIND       PRES   REMARKS
JACKSON        CLEAR     61  57  87 W3        29.97R
LAMBERTVILLE   CLEAR     64  58  81 CALM      29.97R
LANSING        CLEAR     65  57  75 W7        29.95R
LAPEER         FAIR      63  58  81 SW3       29.92R
MASON          CLEAR     63  56  77 CALM      29.95S
MONROE         CLEAR     59  58  95 W5        29.94R
MT. CLEMENS    CLEAR     65  58  78 W8        29.90R
PONTIAC        PTCLDY    65  58  78 W6        29.93R
PORT HOPE        N/A     65  61  87 SW8       29.85R
PORT HURON     CLEAR     57  57 100 CALM      29.91R
TRI CITIES     CLEAR     63  57  81 SW6       29.90S
MIDLAND        FAIR      65  56  73 W5        29.89R
TROY           CLEAR     68  59  74 MISG      29.95R
SAGINAW HB     CLEAR     63  59  88 SW7       29.89S
$$
MIZ043>046-050>051-056>058-064>065-071>073-077>080-301100-
SOUTHWEST LOWER MICHIGAN

CITY           SKY/WX    TMP DP  RH WIND       PRES   REMARKS
BATTLE CREEK   CLEAR     65  58  78 W8        29.98R
BENTON HARBOR  CLEAR     70  62  76 W10       29.99R
BIG RAPIDS     CLEAR     65  55  70 W6        29.91S
COLDWATER      CLEAR     59  56  89 SW5       29.99R
FREMONT        FAIR      66  57  73 W6        29.93R
HOLLAND        CLEAR     72  59  63 W7        29.96S
GRAND RAPIDS   CLEAR     66  58  75 SW7       29.95S
IONIA          FAIR      63  58  83 W7        29.93S
KALAMAZOO      CLEAR     67  58  72 W8        29.99R
LUDINGTON      CLEAR     71  60  68 W7        29.91S
MARSHALL       CLEAR     61  56  85 CALM      29.97R
MOUNT PLEASANT CLEAR     66  57  72 SW6       29.89S
MUSKEGON       CLEAR     71  45  39 W13       29.94S
SOUTH HAVEN    CLEAR     71  62  73 W7        29.98S
$$
MIZ016>042-301100-
NORTHERN LOWER MICHIGAN

CITY           SKY/WX    TMP DP  RH WIND       PRES   REMARKS
ALPENA         CLEAR     68  56  65 SW7       29.81R
BEAVER ISLAND  CLEAR     67  60  76 W14G20    29.79S
BELLAIRE       CLEAR     72  57  60 W7        29.83R
CADILLAC       CLEAR     63  56  79 W6        29.90R
CHARLEVOIX     CLEAR     69  62  77 W17       29.84R
FRANKFORT      CLEAR     69  60  72 NW10G18   29.87S
GAYLORD        CLEAR     66  57  72 W8        29.84S
GRAYLING       CLEAR     63  56  77 SW6       29.86F
HARBOR SPRINGS CLEAR     69  62  79 W9        29.79S
HOUGHTON LAKE  CLEAR     68  57  68 W12       29.88R
MANISTEE       CLEAR     70  55  60 W15G21    29.89S
OSCODA         CLEAR     63  56  78 SW10      29.83S
PELLSTON       CLEAR     69  58  67 W12       29.79S
ROGERS CITY    CLEAR     67  58  72 SW9       29.79F
TRAVERSE CITY  CLEAR     72  56  57 W12       29.84R
$$
MIZ007>008-015-301100-
EASTERN UPPER MICHIGAN

CITY           SKY/WX    TMP DP  RH WIND       PRES   REMARKS
KINROSS        CLEAR     66  57  72 W6        29.74S
MACKINAC ISLAN CLEAR     69  59  69 W13G21    29.76S
MUNISING         N/A     67  54  63 S7        29.75S
$$
MIZ004>006-011>014-085-301100-
CENTRAL UPPER MICHIGAN

CITY           SKY/WX    TMP DP  RH WIND       PRES   REMARKS
MANISTIQUE     CLEAR     68  54  60 W6        29.78R
ESCANABA       CLEAR     64  54  68 W9        29.80S
MENOMINEE      CLEAR     64  54  68 W5        29.86S
SAWYER-GWINN   CLEAR     64  52  64 W14       29.79S
$$
MIZ001>003-009>011-084-301100-
WESTERN UPPER MICHIGAN

CITY           SKY/WX    TMP DP  RH WIND       PRES   REMARKS
IRON MOUNTAIN  CLEAR     65  53  65 W8        29.84S
HOUGHTON       CLEAR     67  53  61 W28G43    29.74R
COPPER HARBOR    N/A     70  53  54 NW14G29   29.70R
IRONWOOD       CLEAR     64  54  68 W15       29.86R
$$

ABBREVIATIONS USED IN REMARKS
   TC - TEMPERATURE IN CELSIUS
  WCI - WIND CHILL INDEX
   HX - HEAT INDEX
  VSB - VISIBILITY




USA.gov is the U.S. government's official web portal to all federal, state and local government web resources and services.